Погода в Мелекеоке

Палау     7°29′53″N   134°38′14″E
темп.,
°C
ветер,
м/с
пор.,
м/с
влажн.,
%
обл.,
%
осадки,
мм/ч
давл.,
гПа
погр.,
м
22 октября, пт
пт2200:00+28ю33735 0.0 1010710
03:00+28ю23725 0.0 1009711
06:00+28ююв22695 0.0 1010655
09:00+28юв34709 0.0 1012915
12:00+29юв436893 0.0 1010931
15:00+29юв43687 0.0 1009993
18:00+29юв346826 0.0 1010872
21:00+29юв346999 0.0 1012797
23 октября, сб
сб2300:00+29юв447096 0.0 1011843
03:00+28юв347199 0.0 1010846
06:00+28ююв347223 0.0 1011803
09:00+29юв336898 0.1 1012836
12:00+29юв436898 0.0 1010849
15:00+29юв336999 0.0 1009798
18:00+29в2271100 0.1 1010720
21:00+29вюв227083 0.4 1012758
24 октября, вс
вс2400:00+28юв227058 0.4 1012709
03:00+28ююз117112 0.4 1010593
06:00+28з117497 0.0 1011404
09:00+28юз1272100 0.0 1012642
12:00+29ююв11719 0.4 1010618
15:00+29ююз117082 0.8 1008764
18:00+29юз1170100 0.1 1009648
21:00+28юз1171100 0.3 1011427
25 октября, пн
пн2500:00+28зюз227373 0.1 1010360
03:00+28зюз237398 0.3 1008449
06:00+28з237585 0.1 1010420
09:00+28зюз22715 0.1 1011606
12:00+29ю436985 0.1 1009802
15:00+29ююз446387 0.1 1008826
18:00+29юз346496 0.0 1009636
21:00+28юз336418 0.0 1011592
26 октября, вт
вт2600:00+28ююз346693 0.0 1010682
03:00+28ююз3467100 0.0 1009681
06:00+28ююз3467100 0.0 1010752
09:00+29ю4463100 0.0 1011809
12:00+29ю346411 0.0 1009755
15:00+29ю4366100 0.0 1008794
18:00+28ю2268100 0.0 1009738
21:00+28ююз116880 0.0 1011629